This is the latest recevied weather packets stored in our database for station/object WA6OOO. If no packets are shown the sender has not sent any weather packets the latest 10 day(s).
| Time | Temp. | Humidity | Pressure | Rain* | Wind** | Luminosity | Snow |
|---|---|---|---|---|---|---|---|
| 1777915916 | 17.78° C | 60% | 1018.5 hPa | 0 mm | - | 417 W/m² | - |
| 1777915612 | 17.22° C | 62% | 1018.4 hPa | 0 mm | - | 511 W/m² | - |
| 1777915308 | 17.22° C | 63% | 1018.5 hPa | 0 mm | - | 477 W/m² | - |
| 1777915005 | 17.22° C | 63% | 1018.4 hPa | 0 mm | - | 470 W/m² | - |
| 1777914703 | 17.22° C | 64% | 1018.7 hPa | 0 mm | - | 406 W/m² | - |
| 1777914398 | 17.22° C | 64% | 1018.5 hPa | 0 mm | - | 583 W/m² | - |
| 1777914096 | 17.78° C | 64% | 1018.6 hPa | 0 mm | - | 593 W/m² | - |
| 1777913792 | 17.22° C | 65% | 1018.5 hPa | 0 mm | - | 511 W/m² | - |
| 1777913488 | 16.67° C | 65% | 1018.5 hPa | 0 mm | - | 584 W/m² | - |
| 1777913185 | 16.67° C | 65% | 1018.3 hPa | 0 mm | - | 557 W/m² | - |
| 1777912881 | 16.67° C | 64% | 1018.3 hPa | 0 mm | - | 531 W/m² | - |
| 1777912578 | 16.67° C | 65% | 1018.4 hPa | 0 mm | - | 468 W/m² | - |
| 1777912275 | 16.11° C | 65% | 1018.6 hPa | 0 mm | - | 512 W/m² | - |
| 1777911970 | 16.67° C | 64% | 1018.6 hPa | 0 mm | - | 336 W/m² | - |
| 1777911667 | 16.67° C | 62% | 1018.5 hPa | 0 mm | - | 357 W/m² | - |
| 1777911363 | 16.67° C | 61% | 1018.3 hPa | 0 mm | - | 473 W/m² | - |
| 1777911061 | 16.67° C | 65% | 1018.5 hPa | 0 mm | - | 443 W/m² | - |
| 1777910758 | 16.11° C | 68% | 1018.4 hPa | 0 mm | - | 404 W/m² | - |
| 1777910455 | 15.56° C | 75% | 1018.4 hPa | 0 mm | - | 431 W/m² | - |
| 1777910151 | 15.56° C | 73% | 1018.6 hPa | 0 mm | - | 430 W/m² | - |
| 1777909849 | 15.56° C | 74% | 1018.1 hPa | 0 mm | - | 408 W/m² | - |
| 1777909545 | 15.56° C | 75% | 1018.3 hPa | 0 mm | - | 391 W/m² | - |
| 1777909242 | 15.56° C | 76% | 1018.3 hPa | 0 mm | - | 308 W/m² | - |
| 1777908941 | 15.56° C | 78% | 1018.3 hPa | 0 mm | - | 392 W/m² | - |
| 1777908639 | 15° C | 78% | 1018.3 hPa | 0 mm | - | 105 W/m² | - |
* Rain latest hour (hover to see other rain measurements)
** Current wind speed in m/s (hover to see current wind gust speed)